Location: Unspecified
(0.0000°N, 0.0000°E)
Time: 04:27:04
(UTC+00:00)

Safir 2 - Pass Details

Date: 20 May 2026
Orbit: 804 x 808 km, 99.0° (Epoch: 11 June)

Event Time Altitude Azimuth Distance (km) Brightness Sun altitude
Rises 03:50:59 0° 31° (NNE) 3,302 12.0 -29.3°
Reaches altitude 10° 03:53:31 10° 41° (NE) 2,374 11.3 -28.7°
Maximum altitude 03:58:10 32° 103° (ESE) 1,345 9.6 -27.7°
Enters shadow 04:02:46 10° 165° (SSE) 2,367 10.4 -26.6°
